TimeEDT,TemperatureF,Dew PointF,Humidity,Sea Level PressureIn,VisibilityMPH,Wind Direction,Wind SpeedMPH,Gust SpeedMPH,PrecipitationIn,Events,Conditions,WindDirDegrees,DateUTC
12:53 AM,81.0,68.0,65,29.88,8.0,Calm,Calm,-,N/A,,Clear,0,2013-08-28 04:53:00
1:53 AM,80.1,66.9,64,29.87,9.0,Calm,Calm,-,N/A,,Clear,0,2013-08-28 05:53:00
2:53 AM,81.0,66.9,62,29.85,10.0,Calm,Calm,-,N/A,,Scattered Clouds,0,2013-08-28 06:53:00
4:53 AM,78.1,66.9,68,29.86,10.0,Calm,Calm,-,N/A,,Scattered Clouds,0,2013-08-28 08:53:00
5:53 AM,79.0,66.9,66,29.85,9.0,Calm,Calm,-,N/A,,Partly Cloudy,0,2013-08-28 09:53:00
6:53 AM,78.1,66.9,68,29.88,6.0,Calm,Calm,-,0.00,,Haze,0,2013-08-28 10:53:00
7:53 AM,77.0,69.1,76,29.87,5.0,Calm,Calm,-,0.00,,Haze,0,2013-08-28 11:53:00
8:53 AM,78.1,69.1,74,29.87,5.0,Calm,Calm,-,0.00,,Haze,0,2013-08-28 12:53:00
9:53 AM,80.1,69.1,69,29.88,6.0,West,5.8,-,N/A,,Haze,260,2013-08-28 13:53:00
10:53 AM,79.0,69.1,72,29.87,4.0,SSW,6.9,-,0.00,Rain,Light Rain,200,2013-08-28 14:53:00
11:09 AM,78.8,69.8,74,29.91,3.0,SW,6.9,-,0.02,Rain,Light Rain,220,2013-08-28 15:09:00
11:20 AM,78.8,69.8,74,29.91,5.0,Variable,4.6,-,0.02,Rain,Light Rain,0,2013-08-28 15:20:00
11:53 AM,79.0,69.1,72,29.86,5.0,Variable,3.5,-,0.04,Rain,Light Rain,0,2013-08-28 15:53:00
12:04 PM,78.8,69.8,74,29.90,5.0,Variable,5.8,-,0.00,Rain,Light Rain,0,2013-08-28 16:04:00
12:18 PM,78.8,69.8,74,29.90,7.0,Variable,5.8,-,0.01,Rain,Light Rain,0,2013-08-28 16:18:00
12:39 PM,78.8,69.8,74,29.89,4.0,Calm,Calm,-,0.03,Rain,Light Rain,0,2013-08-28 16:39:00
12:53 PM,78.1,69.1,74,29.85,6.0,Variable,3.5,-,0.03,Rain,Light Rain,0,2013-08-28 16:53:00
1:32 PM,78.8,69.8,74,29.88,8.0,Variable,4.6,-,0.01,Rain,Light Rain,0,2013-08-28 17:32:00
1:53 PM,78.1,69.1,74,29.85,7.0,Calm,Calm,-,0.02,Rain,Light Rain,0,2013-08-28 17:53:00
2:35 PM,78.8,68.0,69,29.88,7.0,Variable,3.5,-,0.01,Rain,Light Rain,0,2013-08-28 18:35:00
2:53 PM,78.1,68.0,71,29.82,9.0,SSW,4.6,-,0.01,,Mostly Cloudy,210,2013-08-28 18:53:00
3:14 PM,78.8,69.8,74,29.86,8.0,Calm,Calm,-,N/A,,Partly Cloudy,0,2013-08-28 19:14:00
3:53 PM,79.0,68.0,69,29.82,10.0,Calm,Calm,-,N/A,,Mostly Cloudy,0,2013-08-28 19:53:00
5:53 PM,79.0,69.1,72,29.81,8.0,Calm,Calm,-,N/A,,Overcast,0,2013-08-28 21:53:00
6:27 PM,78.8,69.8,74,29.85,1.8,Calm,Calm,-,0.03,Rain,Rain,0,2013-08-28 22:27:00
6:53 PM,75.9,69.1,79,29.81,3.0,Calm,Calm,-,0.14,Rain,Light Rain,0,2013-08-28 22:53:00
7:08 PM,75.2,69.8,83,29.87,1.8,Calm,Calm,-,0.03,Rain,Light Rain,0,2013-08-28 23:08:00
7:28 PM,75.2,69.8,83,29.86,1.2,Calm,Calm,-,0.07,Rain,Light Rain,0,2013-08-28 23:28:00
7:34 PM,75.2,69.8,83,29.88,2.0,Calm,Calm,-,0.08,Rain,Light Rain,0,2013-08-28 23:34:00
7:41 PM,75.2,69.8,83,29.86,2.0,Calm,Calm,-,0.08,,Haze,0,2013-08-28 23:41:00
7:58 PM,75.2,69.8,83,29.86,3.0,Calm,Calm,-,0.00,Rain,Light Rain,0,2013-08-28 23:58:00
8:53 PM,75.9,69.1,79,29.84,4.0,Calm,Calm,-,0.00,,Haze,0,2013-08-29 00:53:00
9:39 PM,75.2,69.8,83,29.88,2.5,Calm,Calm,-,0.00,,Haze,0,2013-08-29 01:39:00
9:53 PM,75.9,69.1,79,29.84,2.5,Calm,Calm,-,0.00,,Haze,0,2013-08-29 01:53:00
10:27 PM,73.4,68.0,83,29.88,0.2,Calm,Calm,-,N/A,,Haze,0,2013-08-29 02:27:00
10:41 PM,75.2,68.0,78,29.88,3.0,Calm,Calm,-,N/A,,Haze,0,2013-08-29 02:41:00
10:53 PM,75.0,68.0,79,29.85,3.0,Calm,Calm,-,N/A,,Haze,0,2013-08-29 02:53:00
11:01 PM,75.2,68.0,78,29.88,4.0,Calm,Calm,-,N/A,,Haze,0,2013-08-29 03:01:00
11:11 PM,75.2,68.0,78,29.88,1.8,Calm,Calm,-,N/A,,Haze,0,2013-08-29 03:11:00
11:35 PM,73.4,68.0,83,29.88,1.8,Calm,Calm,-,N/A,,Haze,0,2013-08-29 03:35:00
11:58 PM,75.2,68.0,78,29.88,3.0,Calm,Calm,-,N/A,,Haze,0,2013-08-29 03:58:00